Location: Banff
(51.1667°N, 115.5667°W)
Time: 19:53:37
(UTC+00:00)

Vanguard 1 Rocket - Pass Details

Date: 27 November 2020
Orbit: 655 x 4221 km, 34.3° (Epoch: 17 January)

Event Time Altitude Azimuth Distance (km) Brightness Sun altitude
Exits shadow 07:46:19 17° 109° (ESE) 5,972 11.4 -59.9°
Drops below altitude 10° 07:50:43 10° 98° (E) 6,244 11.6 -59.8°
Sets 07:56:02 0° 86° (E) 6,772 12.0 -59.6°
